Year,Month,Day,Hour,Minute,Value (Times are PST for temperature in C)
2018,09,27,00,00,15.20
2018,09,27,00,01,15.20
2018,09,27,00,02,15.20
2018,09,27,00,03,15.20
2018,09,27,00,04,15.20
2018,09,27,00,05,15.10
2018,09,27,00,06,15.10
2018,09,27,00,07,15.10
2018,09,27,00,08,15.10
2018,09,27,00,09,15.10
2018,09,27,00,10,15.10
2018,09,27,00,11,15.10
2018,09,27,00,12,15.00
2018,09,27,00,13,15.00
2018,09,27,00,14,15.00
2018,09,27,00,15,15.00
2018,09,27,00,16,15.00
2018,09,27,00,17,15.00
2018,09,27,00,18,14.90
2018,09,27,00,19,14.90
2018,09,27,00,20,14.90
2018,09,27,00,21,14.90
2018,09,27,00,22,14.90
2018,09,27,00,23,14.90
2018,09,27,00,24,14.90
2018,09,27,00,25,14.90
2018,09,27,00,26,14.90
2018,09,27,00,27,14.90
2018,09,27,00,28,15.00
2018,09,27,00,29,15.00
2018,09,27,00,30,15.00
2018,09,27,00,31,15.00
2018,09,27,00,32,15.00
2018,09,27,00,33,15.00
2018,09,27,00,34,15.00
2018,09,27,00,35,15.00
2018,09,27,00,36,15.00
2018,09,27,00,37,15.00
2018,09,27,00,38,14.90
2018,09,27,00,39,14.90
2018,09,27,00,40,14.90
2018,09,27,00,41,14.90
2018,09,27,00,42,14.90
2018,09,27,00,43,14.90
2018,09,27,00,44,14.90
2018,09,27,00,45,14.90
2018,09,27,00,46,14.90
2018,09,27,00,47,14.90
2018,09,27,00,48,14.90
2018,09,27,00,49,14.90
2018,09,27,00,50,14.90
2018,09,27,00,51,14.90
2018,09,27,00,52,14.90
2018,09,27,00,53,14.90
2018,09,27,00,54,14.90
2018,09,27,00,55,14.80
2018,09,27,00,56,14.80
2018,09,27,00,57,14.80
2018,09,27,00,58,14.80
2018,09,27,00,59,14.80
2018,09,27,01,00,14.80
2018,09,27,01,01,14.80
2018,09,27,01,02,14.70
2018,09,27,01,03,14.70
2018,09,27,01,04,14.70
2018,09,27,01,05,14.70
2018,09,27,01,06,14.60
2018,09,27,01,07,14.60
2018,09,27,01,08,14.60
2018,09,27,01,09,14.60
2018,09,27,01,10,14.60
2018,09,27,01,11,14.60
2018,09,27,01,12,14.60
2018,09,27,01,13,14.70
2018,09,27,01,14,14.70
2018,09,27,01,15,14.70
2018,09,27,01,16,14.70
2018,09,27,01,17,14.70
2018,09,27,01,18,14.70
2018,09,27,01,19,14.80
2018,09,27,01,20,14.80
2018,09,27,01,21,14.80
2018,09,27,01,22,14.80
2018,09,27,01,23,14.80
2018,09,27,01,24,14.80
2018,09,27,01,25,14.80
2018,09,27,01,26,14.80
2018,09,27,01,27,14.80
2018,09,27,01,28,14.80
2018,09,27,01,29,14.80
2018,09,27,01,30,14.80
2018,09,27,01,31,14.70
2018,09,27,01,32,14.70
2018,09,27,01,33,14.70
2018,09,27,01,34,14.70
2018,09,27,01,35,14.70
2018,09,27,01,36,14.70
2018,09,27,01,37,14.70
2018,09,27,01,38,14.70
2018,09,27,01,39,14.70
2018,09,27,01,40,14.70
2018,09,27,01,41,14.70
2018,09,27,01,42,14.70
2018,09,27,01,43,14.70
2018,09,27,01,44,14.70
2018,09,27,01,45,14.70
2018,09,27,01,46,14.70
2018,09,27,01,47,14.70
2018,09,27,01,48,14.60
2018,09,27,01,49,14.60
2018,09,27,01,50,14.60
2018,09,27,01,51,14.60
2018,09,27,01,52,14.60
2018,09,27,01,53,14.50
2018,09,27,01,54,14.50
2018,09,27,01,55,14.50
2018,09,27,01,56,14.40
2018,09,27,01,57,14.40
2018,09,27,01,58,14.40
2018,09,27,01,59,14.40
2018,09,27,02,00,14.40
2018,09,27,02,01,14.30
2018,09,27,02,02,14.30
2018,09,27,02,03,14.30
2018,09,27,02,04,14.40
2018,09,27,02,05,14.40
2018,09,27,02,06,14.40
2018,09,27,02,07,14.40
2018,09,27,02,08,14.40
2018,09,27,02,09,14.30
2018,09,27,02,10,14.30
2018,09,27,02,11,14.30
2018,09,27,02,12,14.30
2018,09,27,02,13,14.30
2018,09,27,02,14,14.30
2018,09,27,02,15,14.30
2018,09,27,02,16,14.30
2018,09,27,02,17,14.20
2018,09,27,02,18,14.20
2018,09,27,02,19,14.20
2018,09,27,02,20,14.20
2018,09,27,02,21,14.20
2018,09,27,02,22,14.20
2018,09,27,02,23,14.10
2018,09,27,02,24,14.10
2018,09,27,02,25,14.10
2018,09,27,02,26,14.10
2018,09,27,02,27,14.00
2018,09,27,02,28,14.00
2018,09,27,02,29,14.00
2018,09,27,02,30,14.00
2018,09,27,02,31,14.00
2018,09,27,02,32,14.00
2018,09,27,02,33,13.90
2018,09,27,02,34,13.90
2018,09,27,02,35,13.90
2018,09,27,02,36,13.90
2018,09,27,02,37,13.90
2018,09,27,02,38,13.80
2018,09,27,02,39,13.80
2018,09,27,02,40,13.80
2018,09,27,02,41,13.80
2018,09,27,02,42,13.80
2018,09,27,02,43,13.80
2018,09,27,02,44,13.70
2018,09,27,02,45,13.70
2018,09,27,02,46,13.70
2018,09,27,02,47,13.70
2018,09,27,02,48,13.70
2018,09,27,02,49,13.70
2018,09,27,02,50,13.70
2018,09,27,02,51,13.70
2018,09,27,02,52,13.70
2018,09,27,02,53,13.70
2018,09,27,02,54,13.70
2018,09,27,02,55,13.70
2018,09,27,02,56,13.70
2018,09,27,02,57,13.70
2018,09,27,02,58,13.70
2018,09,27,02,59,13.70
2018,09,27,03,00,13.60
2018,09,27,03,01,13.60
2018,09,27,03,02,13.60
2018,09,27,03,03,13.60
2018,09,27,03,04,13.60
2018,09,27,03,05,13.60
2018,09,27,03,06,13.60
2018,09,27,03,07,13.60
2018,09,27,03,08,13.60
2018,09,27,03,09,13.60
2018,09,27,03,10,13.60
2018,09,27,03,11,13.60
2018,09,27,03,12,13.60
2018,09,27,03,13,13.70
2018,09,27,03,14,13.70
2018,09,27,03,15,13.70
2018,09,27,03,16,13.80
2018,09,27,03,17,13.80
2018,09,27,03,18,13.90
2018,09,27,03,19,13.90
2018,09,27,03,20,14.00
2018,09,27,03,21,14.10
2018,09,27,03,22,14.10
2018,09,27,03,23,14.20
2018,09,27,03,24,14.30
2018,09,27,03,25,14.30
2018,09,27,03,26,14.40
2018,09,27,03,27,14.40
2018,09,27,03,28,14.50
2018,09,27,03,29,14.50
2018,09,27,03,30,14.60
2018,09,27,03,31,14.60
2018,09,27,03,32,14.60
2018,09,27,03,33,14.60
2018,09,27,03,34,14.70
2018,09,27,03,35,14.70
2018,09,27,03,36,14.70
2018,09,27,03,37,14.70
2018,09,27,03,38,14.70
2018,09,27,03,39,14.70
2018,09,27,03,40,14.70
2018,09,27,03,41,14.70
2018,09,27,03,42,14.70
2018,09,27,03,43,14.70
2018,09,27,03,44,14.70
2018,09,27,03,45,14.70
2018,09,27,03,46,14.70
2018,09,27,03,47,14.60
2018,09,27,03,48,14.60
2018,09,27,03,49,14.60
2018,09,27,03,50,14.50
2018,09,27,03,51,14.50
2018,09,27,03,52,14.50
2018,09,27,03,53,14.40
2018,09,27,03,54,14.40
2018,09,27,03,55,14.30
2018,09,27,03,56,14.30
2018,09,27,03,57,14.30
2018,09,27,03,58,14.30
2018,09,27,03,59,14.20
2018,09,27,04,00,14.20
2018,09,27,04,01,14.20
2018,09,27,04,02,14.20
2018,09,27,04,03,14.10
2018,09,27,04,04,14.10
2018,09,27,04,05,14.10
2018,09,27,04,06,14.00
2018,09,27,04,07,14.00
2018,09,27,04,08,14.00
2018,09,27,04,09,13.90
2018,09,27,04,10,13.90
2018,09,27,04,11,13.90
2018,09,27,04,12,13.90
2018,09,27,04,13,13.80
2018,09,27,04,14,13.80
2018,09,27,04,15,13.80
2018,09,27,04,16,13.80
2018,09,27,04,17,13.80
2018,09,27,04,18,13.80
2018,09,27,04,19,13.80
2018,09,27,04,20,13.70
2018,09,27,04,21,13.70
2018,09,27,04,22,13.70
2018,09,27,04,23,13.70
2018,09,27,04,24,13.70
2018,09,27,04,25,13.70
2018,09,27,04,26,13.60
2018,09,27,04,27,13.60
2018,09,27,04,28,13.60
2018,09,27,04,29,13.60
2018,09,27,04,30,13.60
2018,09,27,04,31,13.50
2018,09,27,04,32,13.50
2018,09,27,04,33,13.40
2018,09,27,04,34,13.40
2018,09,27,04,35,13.50
2018,09,27,04,36,13.40
2018,09,27,04,37,13.50
2018,09,27,04,38,13.50
2018,09,27,04,39,13.50
2018,09,27,04,40,13.50
2018,09,27,04,41,13.50
2018,09,27,04,42,13.60
2018,09,27,04,43,13.70
2018,09,27,04,44,13.70
2018,09,27,04,45,13.80
2018,09,27,04,46,13.90
2018,09,27,04,47,14.00
2018,09,27,04,48,14.00
2018,09,27,04,49,14.10
2018,09,27,04,50,14.20
2018,09,27,04,51,14.20
2018,09,27,04,52,14.20
2018,09,27,04,53,14.30
2018,09,27,04,54,14.40
2018,09,27,04,55,14.40
2018,09,27,04,56,14.50
2018,09,27,04,57,14.50
2018,09,27,04,58,14.60
2018,09,27,04,59,14.60
2018,09,27,05,00,14.60
2018,09,27,05,01,14.60
2018,09,27,05,02,14.60
2018,09,27,05,03,14.60
2018,09,27,05,04,14.70
2018,09,27,05,05,14.70
2018,09,27,05,06,14.70
2018,09,27,05,07,14.70
2018,09,27,05,08,14.70
2018,09,27,05,09,14.60
2018,09,27,05,10,14.70
2018,09,27,05,11,14.70
2018,09,27,05,12,14.70
2018,09,27,05,13,14.70
2018,09,27,05,14,14.70
2018,09,27,05,15,14.70
2018,09,27,05,16,14.70
2018,09,27,05,17,14.70
2018,09,27,05,18,14.70
2018,09,27,05,19,14.70
2018,09,27,05,20,14.80
2018,09,27,05,21,14.80
2018,09,27,05,22,14.80
2018,09,27,05,23,14.80
2018,09,27,05,24,14.90
2018,09,27,05,25,14.90
2018,09,27,05,26,14.90
2018,09,27,05,27,14.90
2018,09,27,05,28,14.90
2018,09,27,05,29,14.90
2018,09,27,05,30,14.90
2018,09,27,05,31,14.90
2018,09,27,05,32,14.90
2018,09,27,05,33,14.90
2018,09,27,05,34,14.80
2018,09,27,05,35,14.80
2018,09,27,05,36,14.80
2018,09,27,05,37,14.80
2018,09,27,05,38,14.80
2018,09,27,05,39,14.80
2018,09,27,05,40,14.80
2018,09,27,05,41,14.80
2018,09,27,05,42,14.80
2018,09,27,05,43,14.80
2018,09,27,05,44,14.90
2018,09,27,05,45,14.90
2018,09,27,05,46,14.90
2018,09,27,05,47,14.90
2018,09,27,05,48,15.00
2018,09,27,05,49,15.00
2018,09,27,05,50,15.10
2018,09,27,05,51,15.10
2018,09,27,05,52,15.10
2018,09,27,05,53,15.10
2018,09,27,05,54,15.10
2018,09,27,05,55,15.10
2018,09,27,05,56,15.10
2018,09,27,05,57,15.10
2018,09,27,05,58,15.10
2018,09,27,05,59,15.10
2018,09,27,06,00,15.10
2018,09,27,06,01,15.10
2018,09,27,06,02,15.10
2018,09,27,06,03,15.10
2018,09,27,06,04,15.10
2018,09,27,06,05,15.10
2018,09,27,06,06,15.10
2018,09,27,06,07,15.10
2018,09,27,06,08,15.10
2018,09,27,06,09,15.10
2018,09,27,06,10,15.10
2018,09,27,06,11,15.10
2018,09,27,06,12,15.00
2018,09,27,06,13,15.10
2018,09,27,06,14,15.10
2018,09,27,06,15,15.10
2018,09,27,06,16,15.10
2018,09,27,06,17,15.10
2018,09,27,06,18,15.10
2018,09,27,06,19,15.10
2018,09,27,06,20,15.10
2018,09,27,06,21,15.10
2018,09,27,06,22,15.10
2018,09,27,06,23,15.10
2018,09,27,06,24,15.10
2018,09,27,06,25,15.10
2018,09,27,06,26,15.10
2018,09,27,06,27,15.10
2018,09,27,06,28,15.20
2018,09,27,06,29,15.20
2018,09,27,06,30,15.20
2018,09,27,06,31,15.20
2018,09,27,06,32,15.20
2018,09,27,06,33,15.20
2018,09,27,06,34,15.20
2018,09,27,06,35,15.20
2018,09,27,06,36,15.20
2018,09,27,06,37,15.20
2018,09,27,06,38,15.20
2018,09,27,06,39,15.30
2018,09,27,06,40,15.30
2018,09,27,06,41,15.30
2018,09,27,06,42,15.30
2018,09,27,06,43,15.30
2018,09,27,06,44,15.30
2018,09,27,06,45,15.30
2018,09,27,06,46,15.30
2018,09,27,06,47,15.20
2018,09,27,06,48,15.20
2018,09,27,06,49,15.20
2018,09,27,06,50,15.20
2018,09,27,06,51,15.20
2018,09,27,06,52,15.20
2018,09,27,06,53,15.20
2018,09,27,06,54,15.20
2018,09,27,06,55,15.20
2018,09,27,06,56,15.20
2018,09,27,06,57,15.20
2018,09,27,06,58,15.20
2018,09,27,06,59,15.20
2018,09,27,07,00,15.20
2018,09,27,07,01,15.20
2018,09,27,07,02,15.20
2018,09,27,07,03,15.20
2018,09,27,07,04,15.20
2018,09,27,07,05,15.20
2018,09,27,07,06,15.20
2018,09,27,07,07,15.20
2018,09,27,07,08,15.20
2018,09,27,07,09,15.20
2018,09,27,07,10,15.10
2018,09,27,07,11,15.10
2018,09,27,07,12,15.10
2018,09,27,07,13,15.10
2018,09,27,07,14,15.00
2018,09,27,07,15,15.00
2018,09,27,07,16,14.90
2018,09,27,07,17,14.90
2018,09,27,07,18,14.90
2018,09,27,07,19,14.80
2018,09,27,07,20,14.80
2018,09,27,07,21,14.80
2018,09,27,07,22,14.70
2018,09,27,07,23,14.70
2018,09,27,07,24,14.70
2018,09,27,07,25,14.70
2018,09,27,07,26,14.70
2018,09,27,07,27,14.60
2018,09,27,07,28,14.60
2018,09,27,07,29,14.60
2018,09,27,07,30,14.60
2018,09,27,07,31,14.60
2018,09,27,07,32,14.60
2018,09,27,07,33,14.60
2018,09,27,07,34,14.60
2018,09,27,07,35,14.60
2018,09,27,07,36,14.60
2018,09,27,07,37,14.60
2018,09,27,07,38,14.60
2018,09,27,07,39,14.60
2018,09,27,07,40,14.60
2018,09,27,07,41,14.60
2018,09,27,07,42,14.60
2018,09,27,07,43,14.70
2018,09,27,07,44,14.70
2018,09,27,07,45,14.70
2018,09,27,07,46,14.70
2018,09,27,07,47,14.70
2018,09,27,07,48,14.70
2018,09,27,07,49,14.70
2018,09,27,07,50,14.70
2018,09,27,07,51,14.70
2018,09,27,07,52,14.70
2018,09,27,07,53,14.70
2018,09,27,07,54,14.70
2018,09,27,07,55,14.70
2018,09,27,07,56,14.70
2018,09,27,07,57,14.70
2018,09,27,07,58,14.70
2018,09,27,07,59,14.70
2018,09,27,08,00,14.70
2018,09,27,08,01,14.70
2018,09,27,08,02,14.70
2018,09,27,08,03,14.70
2018,09,27,08,04,14.70
2018,09,27,08,05,14.70
2018,09,27,08,06,14.70
2018,09,27,08,07,14.80
2018,09,27,08,08,14.80
2018,09,27,08,09,14.80
2018,09,27,08,10,14.80
2018,09,27,08,11,14.80
2018,09,27,08,12,14.90
2018,09,27,08,13,14.90
2018,09,27,08,14,15.00
2018,09,27,08,15,15.00
2018,09,27,08,16,15.00
2018,09,27,08,17,15.10
2018,09,27,08,18,15.10
2018,09,27,08,19,15.10
2018,09,27,08,20,15.20
2018,09,27,08,21,15.20
2018,09,27,08,22,15.20
2018,09,27,08,23,15.30
2018,09,27,08,24,15.30
2018,09,27,08,25,15.30
2018,09,27,08,26,15.30
2018,09,27,08,27,15.30
2018,09,27,08,28,15.40
2018,09,27,08,29,15.40
2018,09,27,08,30,15.40
2018,09,27,08,31,15.40
2018,09,27,08,32,15.40
2018,09,27,08,33,15.50
2018,09,27,08,34,15.50
2018,09,27,08,35,15.50
2018,09,27,08,36,15.50
2018,09,27,08,37,15.50
2018,09,27,08,38,15.50
2018,09,27,08,39,15.50
2018,09,27,08,40,15.50
2018,09,27,08,41,15.50
2018,09,27,08,42,15.50
2018,09,27,08,43,15.60
2018,09,27,08,44,15.60
2018,09,27,08,45,15.60
2018,09,27,08,46,15.60
2018,09,27,08,47,15.60
2018,09,27,08,48,15.60
2018,09,27,08,49,15.60
2018,09,27,08,50,15.60
2018,09,27,08,51,15.60
2018,09,27,08,52,15.60
2018,09,27,08,53,15.60
2018,09,27,08,54,15.60
2018,09,27,08,55,15.70
2018,09,27,08,56,15.70
2018,09,27,08,57,15.70
2018,09,27,08,58,15.70
2018,09,27,08,59,15.80
2018,09,27,09,00,15.80
2018,09,27,09,01,15.80
2018,09,27,09,02,15.80
2018,09,27,09,03,15.80
2018,09,27,09,04,15.90
2018,09,27,09,05,15.90
2018,09,27,09,06,15.90
2018,09,27,09,07,16.00
2018,09,27,09,08,16.00
2018,09,27,09,09,16.00
2018,09,27,09,10,16.10
2018,09,27,09,11,16.10
2018,09,27,09,12,16.10
2018,09,27,09,13,16.20
2018,09,27,09,14,16.20
2018,09,27,09,15,16.20
2018,09,27,09,16,16.20
2018,09,27,09,17,16.30
2018,09,27,09,18,16.30
2018,09,27,09,19,16.30
2018,09,27,09,20,16.30
2018,09,27,09,21,16.40
2018,09,27,09,22,16.40
2018,09,27,09,23,16.40
2018,09,27,09,24,16.50
2018,09,27,09,25,16.50
2018,09,27,09,26,16.60
2018,09,27,09,27,16.60
2018,09,27,09,28,16.60
2018,09,27,09,29,16.70
2018,09,27,09,30,16.70
2018,09,27,09,31,16.70
2018,09,27,09,32,16.80
2018,09,27,09,33,16.80
2018,09,27,09,34,16.80
2018,09,27,09,35,16.90
2018,09,27,09,36,16.90
2018,09,27,09,37,16.90
2018,09,27,09,38,16.90
2018,09,27,09,39,16.90
2018,09,27,09,40,16.90
2018,09,27,09,41,16.90
2018,09,27,09,42,16.90
2018,09,27,09,43,16.90
2018,09,27,09,44,16.90
2018,09,27,09,45,16.90
2018,09,27,09,46,16.90
2018,09,27,09,47,16.90
2018,09,27,09,48,17.00
2018,09,27,09,49,17.00
2018,09,27,09,50,17.00
2018,09,27,09,51,17.00
2018,09,27,09,52,17.00
2018,09,27,09,53,17.10
2018,09,27,09,54,17.10
2018,09,27,09,55,17.10
2018,09,27,09,56,17.10
2018,09,27,09,57,17.10
2018,09,27,09,58,17.20
2018,09,27,09,59,17.20
2018,09,27,10,00,17.20
2018,09,27,10,01,17.20
2018,09,27,10,02,17.20
2018,09,27,10,03,17.20
2018,09,27,10,04,17.20
2018,09,27,10,05,17.20
2018,09,27,10,06,17.20
2018,09,27,10,07,17.20
2018,09,27,10,08,17.20
2018,09,27,10,09,17.20
2018,09,27,10,10,17.20
2018,09,27,10,11,17.20
2018,09,27,10,12,17.30
2018,09,27,10,13,17.30
2018,09,27,10,14,17.30
2018,09,27,10,15,17.30
2018,09,27,10,16,17.30
2018,09,27,10,17,17.30
2018,09,27,10,18,17.40
2018,09,27,10,19,17.40
2018,09,27,10,20,17.40
2018,09,27,10,21,17.40
2018,09,27,10,22,17.50
2018,09,27,10,23,17.50
2018,09,27,10,24,17.60
2018,09,27,10,25,17.60
2018,09,27,10,26,17.60
2018,09,27,10,27,17.70
2018,09,27,10,28,17.70
2018,09,27,10,29,17.80
2018,09,27,10,30,17.80
2018,09,27,10,31,17.90
2018,09,27,10,32,17.90
2018,09,27,10,33,17.90
2018,09,27,10,34,17.90
2018,09,27,10,35,18.00
2018,09,27,10,36,18.00
2018,09,27,10,37,18.00
2018,09,27,10,38,18.00
2018,09,27,10,39,18.00
2018,09,27,10,40,17.90
2018,09,27,10,41,17.90
2018,09,27,10,42,17.90
2018,09,27,10,43,17.90
2018,09,27,10,44,17.90
2018,09,27,10,45,17.90
2018,09,27,10,46,17.90
2018,09,27,10,47,17.90
2018,09,27,10,48,17.90
2018,09,27,10,49,17.90
2018,09,27,10,50,17.90
2018,09,27,10,51,17.90
2018,09,27,10,52,17.80
2018,09,27,10,53,17.80
2018,09,27,10,54,17.90
2018,09,27,10,55,17.90
2018,09,27,10,56,17.90
2018,09,27,10,57,17.90
2018,09,27,10,58,18.00
2018,09,27,10,59,18.00
2018,09,27,11,00,18.10
2018,09,27,11,01,18.10
2018,09,27,11,02,18.20
2018,09,27,11,03,18.20
2018,09,27,11,04,18.20
2018,09,27,11,05,18.20
2018,09,27,11,06,18.20
2018,09,27,11,07,18.20
2018,09,27,11,08,18.20
2018,09,27,11,09,18.20
2018,09,27,11,10,18.20
2018,09,27,11,11,18.30
2018,09,27,11,12,18.30
2018,09,27,11,13,18.40
2018,09,27,11,14,18.40
2018,09,27,11,15,18.50
2018,09,27,11,16,18.60
2018,09,27,11,17,18.60
2018,09,27,11,18,18.60
2018,09,27,11,19,18.70
2018,09,27,11,20,18.70
2018,09,27,11,21,18.70
2018,09,27,11,22,18.70
2018,09,27,11,23,18.70
2018,09,27,11,24,18.70
2018,09,27,11,25,18.80
2018,09,27,11,26,18.80
2018,09,27,11,27,18.80
2018,09,27,11,28,18.80
2018,09,27,11,29,18.80
2018,09,27,11,30,18.90
2018,09,27,11,31,18.90
2018,09,27,11,32,18.90
2018,09,27,11,33,18.90
2018,09,27,11,34,18.90
2018,09,27,11,35,18.90
2018,09,27,11,36,18.90
2018,09,27,11,37,19.00
2018,09,27,11,38,19.00
2018,09,27,11,39,19.00
2018,09,27,11,40,19.10
2018,09,27,11,41,19.10
2018,09,27,11,42,19.10
2018,09,27,11,43,19.10
2018,09,27,11,44,19.20
2018,09,27,11,45,19.20
2018,09,27,11,46,19.20
2018,09,27,11,47,19.30
2018,09,27,11,48,19.30
2018,09,27,11,49,19.30
2018,09,27,11,50,19.40
2018,09,27,11,51,19.40
2018,09,27,11,52,19.30
2018,09,27,11,53,19.30
2018,09,27,11,54,19.30
2018,09,27,11,55,19.30
2018,09,27,11,56,19.30
2018,09,27,11,57,19.30
2018,09,27,11,58,19.30
2018,09,27,11,59,19.30
2018,09,27,12,00,19.30
2018,09,27,12,01,19.30
2018,09,27,12,02,19.30
2018,09,27,12,03,19.30
2018,09,27,12,04,19.40
2018,09,27,12,05,19.40
2018,09,27,12,06,19.50
2018,09,27,12,07,19.60
2018,09,27,12,08,19.60
2018,09,27,12,09,19.70
2018,09,27,12,10,19.80
2018,09,27,12,11,19.80
2018,09,27,12,12,19.90
2018,09,27,12,13,19.90
2018,09,27,12,14,20.00
2018,09,27,12,15,20.10
2018,09,27,12,16,20.10
2018,09,27,12,17,20.10
2018,09,27,12,18,20.00
2018,09,27,12,19,19.90
2018,09,27,12,20,19.90
2018,09,27,12,21,19.90
2018,09,27,12,22,19.90
2018,09,27,12,23,19.90
2018,09,27,12,24,20.00
2018,09,27,12,25,20.00
2018,09,27,12,26,20.00
2018,09,27,12,27,19.90
2018,09,27,12,28,20.00
2018,09,27,12,29,20.00
2018,09,27,12,30,20.00
2018,09,27,12,31,20.00
2018,09,27,12,32,19.90
2018,09,27,12,33,20.00
2018,09,27,12,34,20.00
2018,09,27,12,35,20.00
2018,09,27,12,36,20.10
2018,09,27,12,37,20.10
2018,09,27,12,38,20.10
2018,09,27,12,39,20.20
2018,09,27,12,40,20.20
2018,09,27,12,41,20.20
2018,09,27,12,42,20.20
2018,09,27,12,43,20.30
2018,09,27,12,44,20.30
2018,09,27,12,45,20.30
2018,09,27,12,46,20.30
2018,09,27,12,47,20.40
2018,09,27,12,48,20.40
2018,09,27,12,49,20.50
2018,09,27,12,50,20.60
2018,09,27,12,51,20.70
2018,09,27,12,52,20.70
2018,09,27,12,53,20.80
2018,09,27,12,54,20.90
2018,09,27,12,55,20.90
2018,09,27,12,56,21.00
2018,09,27,12,57,21.10
2018,09,27,12,58,21.00
2018,09,27,12,59,20.90
2018,09,27,13,00,20.90
2018,09,27,13,01,20.80
2018,09,27,13,02,20.80
2018,09,27,13,03,20.80
2018,09,27,13,04,20.70
2018,09,27,13,05,20.70
2018,09,27,13,06,20.70
2018,09,27,13,07,20.70
2018,09,27,13,08,20.70
2018,09,27,13,09,20.70
2018,09,27,13,10,20.70
2018,09,27,13,11,20.80
2018,09,27,13,12,20.80
2018,09,27,13,13,20.80
2018,09,27,13,14,20.80
2018,09,27,13,15,20.80
2018,09,27,13,16,20.80
2018,09,27,13,17,20.80
2018,09,27,13,18,20.80
2018,09,27,13,19,20.80
2018,09,27,13,20,20.80
2018,09,27,13,21,20.80
2018,09,27,13,22,20.80
2018,09,27,13,23,20.80
2018,09,27,13,24,20.80
2018,09,27,13,25,20.80
2018,09,27,13,26,20.80
2018,09,27,13,27,20.80
2018,09,27,13,28,20.80
2018,09,27,13,29,20.80
2018,09,27,13,30,20.80
2018,09,27,13,31,20.80
2018,09,27,13,32,20.70
2018,09,27,13,33,20.70
2018,09,27,13,34,20.70
2018,09,27,13,35,20.60
2018,09,27,13,36,20.60
2018,09,27,13,37,20.60
2018,09,27,13,38,20.70
2018,09,27,13,39,20.70
2018,09,27,13,40,20.80
2018,09,27,13,41,20.80
2018,09,27,13,42,20.80
2018,09,27,13,43,20.80
2018,09,27,13,44,20.80
2018,09,27,13,45,20.70
2018,09,27,13,46,20.70
2018,09,27,13,47,20.70
2018,09,27,13,48,20.80
2018,09,27,13,49,20.80
2018,09,27,13,50,20.80
2018,09,27,13,51,20.90
2018,09,27,13,52,20.90
2018,09,27,13,53,20.90
2018,09,27,13,54,20.90
2018,09,27,13,55,21.00
2018,09,27,13,56,21.10
2018,09,27,13,57,21.10
2018,09,27,13,58,21.10
2018,09,27,13,59,21.20
2018,09,27,14,00,21.20
2018,09,27,14,01,21.30
2018,09,27,14,02,21.30
2018,09,27,14,03,21.30
2018,09,27,14,04,21.40
2018,09,27,14,05,21.40
2018,09,27,14,06,21.40
2018,09,27,14,07,21.40
2018,09,27,14,08,21.40
2018,09,27,14,09,21.40
2018,09,27,14,10,21.40
2018,09,27,14,11,21.40
2018,09,27,14,12,21.40
2018,09,27,14,13,21.40
2018,09,27,14,14,21.40
2018,09,27,14,15,21.50
2018,09,27,14,16,21.50
2018,09,27,14,17,21.60
2018,09,27,14,18,21.60
2018,09,27,14,19,21.60
2018,09,27,14,20,21.60
2018,09,27,14,21,21.50
2018,09,27,14,22,21.50
2018,09,27,14,23,21.50
2018,09,27,14,24,21.50
2018,09,27,14,25,21.50
2018,09,27,14,26,21.50
2018,09,27,14,27,21.50
2018,09,27,14,28,21.60
2018,09,27,14,29,21.60
2018,09,27,14,30,21.70
2018,09,27,14,31,21.70
2018,09,27,14,32,21.70
2018,09,27,14,33,21.70
2018,09,27,14,34,21.70
2018,09,27,14,35,21.70
2018,09,27,14,36,21.70
2018,09,27,14,37,21.70
2018,09,27,14,38,21.60
2018,09,27,14,39,21.60
2018,09,27,14,40,21.60
2018,09,27,14,41,21.60
2018,09,27,14,42,21.50
2018,09,27,14,43,21.50
2018,09,27,14,44,21.50
2018,09,27,14,45,21.50
2018,09,27,14,46,21.60
2018,09,27,14,47,21.50
2018,09,27,14,48,21.50
2018,09,27,14,49,21.50
2018,09,27,14,50,21.50
2018,09,27,14,51,21.60
2018,09,27,14,52,21.60
2018,09,27,14,53,21.70
2018,09,27,14,54,21.70
2018,09,27,14,55,21.70
2018,09,27,14,56,21.60
2018,09,27,14,57,21.60
2018,09,27,14,58,21.60
2018,09,27,14,59,21.60
2018,09,27,15,00,21.60
2018,09,27,15,01,21.60
2018,09,27,15,02,21.60
2018,09,27,15,03,21.70
2018,09,27,15,04,21.70
2018,09,27,15,05,21.70
2018,09,27,15,06,21.60
2018,09,27,15,07,21.60
2018,09,27,15,08,21.60
2018,09,27,15,09,21.60
2018,09,27,15,10,21.60
2018,09,27,15,11,21.60
2018,09,27,15,12,21.60
2018,09,27,15,13,21.60
2018,09,27,15,14,21.60
2018,09,27,15,15,21.60
2018,09,27,15,16,21.50
2018,09,27,15,17,21.50
2018,09,27,15,18,21.50
2018,09,27,15,19,21.50
2018,09,27,15,20,21.50
2018,09,27,15,21,21.50
2018,09,27,15,22,21.50
2018,09,27,15,23,21.50
2018,09,27,15,24,21.50
2018,09,27,15,25,21.50
2018,09,27,15,26,21.50
2018,09,27,15,27,21.50
2018,09,27,15,28,21.50
2018,09,27,15,29,21.50
2018,09,27,15,30,21.60
2018,09,27,15,31,21.60
2018,09,27,15,32,21.60
2018,09,27,15,33,21.50
2018,09,27,15,34,21.50
2018,09,27,15,35,21.50
2018,09,27,15,36,21.50
2018,09,27,15,37,21.60
2018,09,27,15,38,21.60
2018,09,27,15,39,21.60
2018,09,27,15,40,21.50
2018,09,27,15,41,21.50
2018,09,27,15,42,21.40
2018,09,27,15,43,21.50
2018,09,27,15,44,21.50
2018,09,27,15,45,21.60
2018,09,27,15,46,21.60
2018,09,27,15,47,21.60
2018,09,27,15,48,21.60
2018,09,27,15,49,21.60
2018,09,27,15,50,21.60
2018,09,27,15,51,21.50
2018,09,27,15,52,21.50
2018,09,27,15,53,21.50
2018,09,27,15,54,21.50
2018,09,27,15,55,21.60
2018,09,27,15,56,21.50
2018,09,27,15,57,21.50
2018,09,27,15,58,21.40
2018,09,27,15,59,21.40
2018,09,27,16,00,21.30
2018,09,27,16,01,21.30
2018,09,27,16,02,21.30
2018,09,27,16,03,21.20
2018,09,27,16,04,21.20
2018,09,27,16,05,21.10
2018,09,27,16,06,21.10
2018,09,27,16,07,21.10
2018,09,27,16,08,21.10
2018,09,27,16,09,21.00
2018,09,27,16,10,21.00
2018,09,27,16,11,21.00
2018,09,27,16,12,21.00
2018,09,27,16,13,21.10
2018,09,27,16,14,21.00
2018,09,27,16,15,21.00
2018,09,27,16,16,21.00
2018,09,27,16,17,21.00
2018,09,27,16,18,21.00
2018,09,27,16,19,21.10
2018,09,27,16,20,21.10
2018,09,27,16,21,21.10
2018,09,27,16,22,21.10
2018,09,27,16,23,21.20
2018,09,27,16,24,21.20
2018,09,27,16,25,21.20
2018,09,27,16,26,21.30
2018,09,27,16,27,21.30
2018,09,27,16,28,21.30
2018,09,27,16,29,21.30
2018,09,27,16,30,21.40
2018,09,27,16,31,21.40
2018,09,27,16,32,21.40
2018,09,27,16,33,21.40
2018,09,27,16,34,21.40
2018,09,27,16,35,21.30
2018,09,27,16,36,21.30
2018,09,27,16,37,21.30
2018,09,27,16,38,21.30
2018,09,27,16,39,21.20
2018,09,27,16,40,21.20
2018,09,27,16,41,21.20
2018,09,27,16,42,21.20
2018,09,27,16,43,21.20
2018,09,27,16,44,21.20
2018,09,27,16,45,21.10
2018,09,27,16,46,21.10
2018,09,27,16,47,21.10
2018,09,27,16,48,21.10
2018,09,27,16,49,21.10
2018,09,27,16,50,21.10
2018,09,27,16,51,21.10
2018,09,27,16,52,21.10
2018,09,27,16,53,21.00
2018,09,27,16,54,21.00
2018,09,27,16,55,21.00
2018,09,27,16,56,21.00
2018,09,27,16,57,21.00
2018,09,27,16,58,21.00
2018,09,27,16,59,21.00
2018,09,27,17,00,21.00
2018,09,27,17,01,21.00
2018,09,27,17,02,21.00
2018,09,27,17,03,21.00
2018,09,27,17,04,21.00
2018,09,27,17,05,21.00
2018,09,27,17,06,21.00
2018,09,27,17,07,21.00
2018,09,27,17,08,21.00
2018,09,27,17,09,21.00
2018,09,27,17,10,21.00
2018,09,27,17,11,21.00
2018,09,27,17,12,21.00
2018,09,27,17,13,20.90
2018,09,27,17,14,20.90
2018,09,27,17,15,20.90
2018,09,27,17,16,20.90
2018,09,27,17,17,20.80
2018,09,27,17,18,20.80
2018,09,27,17,19,20.70